�������l�o���
Date,Time,MP-1(��Sv/h),MP-2(��Sv/h),MP-3(��Sv/h),MP-4(��Sv/h),MP-5(��Sv/h),MP-6(��Sv/h),MP-7(��Sv/h),MP-8(��Sv/h),����,����(m/s),���J
2018/09/23,00:00,0.770,1.150,0.810,1.442,1.025,0.456,0.799,0.758,�k��,5.4,��
2018/09/23,00:10,0.770,1.149,0.810,1.439,1.028,0.457,0.799,0.757,�k��,4.4,��
2018/09/23,00:20,0.771,1.147,0.810,1.441,1.026,0.458,0.798,0.759,���k��,4.8,��
2018/09/23,00:30,0.770,1.147,0.811,1.440,1.027,0.456,0.797,0.757,���k��,5.0,��
2018/09/23,00:40,0.772,1.147,0.809,1.440,1.027,0.457,0.800,0.758,���k��,5.2,��
2018/09/23,00:50,0.770,1.149,0.812,1.438,1.027,0.456,0.799,0.758,���k��,5.9,��
2018/09/23,01:00,0.770,1.149,0.812,1.443,1.026,0.456,0.801,0.758,���k��,6.0,��
2018/09/23,01:10,0.770,1.148,0.811,1.441,1.028,0.455,0.799,0.757,���k��,6.3,��
2018/09/23,01:20,0.771,1.147,0.811,1.441,1.026,0.457,0.800,0.759,���k��,7.2,��
2018/09/23,01:30,0.769,1.149,0.812,1.441,1.027,0.457,0.799,0.757,���k��,7.4,��
2018/09/23,01:40,0.769,1.150,0.811,1.441,1.026,0.457,0.801,0.760,���k��,6.6,��
2018/09/23,01:50,0.770,1.150,0.812,1.440,1.026,0.457,0.800,0.759,���k��,5.6,��
2018/09/23,02:00,0.770,1.150,0.811,1.439,1.028,0.456,0.798,0.758,���k��,5.9,��
2018/09/23,02:10,0.770,1.149,0.810,1.441,1.028,0.456,0.801,0.758,���k��,6.1,��
2018/09/23,02:20,0.769,1.148,0.810,1.442,1.027,0.457,0.800,0.759,���k��,7.3,��
2018/09/23,02:30,0.772,1.149,0.810,1.441,1.026,0.456,0.801,0.758,���k��,7.9,��
2018/09/23,02:40,0.771,1.149,0.811,1.442,1.027,0.456,0.801,0.759,���k��,7.7,��
2018/09/23,02:50,0.772,1.148,0.811,1.441,1.029,0.457,0.800,0.758,���k��,7.4,��
2018/09/23,03:00,0.768,1.149,0.810,1.445,1.029,0.458,0.799,0.759,���k��,8.5,��
2018/09/23,03:10,0.770,1.148,0.812,1.441,1.027,0.456,0.800,0.757,���k��,8.0,��
2018/09/23,03:20,0.772,1.151,0.812,1.440,1.027,0.458,0.799,0.760,���k��,7.7,��
2018/09/23,03:30,0.772,1.149,0.813,1.444,1.029,0.457,0.800,0.758,���k��,8.9,��
2018/09/23,03:40,0.769,1.147,0.812,1.442,1.027,0.457,0.802,0.760,���k��,8.3,��
2018/09/23,03:50,0.770,1.153,0.814,1.446,1.028,0.456,0.799,0.761,���k��,7.5,��
2018/09/23,04:00,0.771,1.149,0.813,1.446,1.026,0.457,0.798,0.759,���k��,7.2,��
2018/09/23,04:10,0.773,1.149,0.811,1.443,1.026,0.458,0.800,0.759,���k��,8.0,��
2018/09/23,04:20,0.770,1.148,0.814,1.442,1.026,0.458,0.801,0.759,���k��,8.9,��
2018/09/23,04:30,0.769,1.149,0.813,1.445,1.028,0.457,0.799,0.760,���k��,8.5,��
2018/09/23,04:40,0.772,1.151,0.813,1.443,1.027,0.457,0.800,0.761,���k��,8.7,��
2018/09/23,04:50,0.770,1.150,0.812,1.444,1.026,0.458,0.799,0.759,�k��,7.7,��
2018/09/23,05:00,0.771,1.150,0.814,1.445,1.026,0.458,0.799,0.760,���k��,7.5,��
2018/09/23,05:10,0.769,1.152,0.811,1.444,1.026,0.457,0.800,0.759,���k��,7.1,��
2018/09/23,05:20,0.769,1.149,0.814,1.445,1.027,0.456,0.798,0.760,���k��,6.4,��
2018/09/23,05:30,0.768,1.151,0.813,1.442,1.028,0.457,0.799,0.758,���k��,7.6,��
2018/09/23,05:40,0.771,1.151,0.812,1.446,1.030,0.457,0.799,0.757,���k��,7.5,��
2018/09/23,05:50,0.771,1.150,0.812,1.444,1.027,0.456,0.799,0.758,�k��,5.6,��
2018/09/23,06:00,0.771,1.149,0.812,1.447,1.026,0.457,0.799,0.760,���k��,3.7,��
2018/09/23,06:10,0.769,1.148,0.812,1.445,1.029,0.456,0.801,0.761,���k��,4.9,��
2018/09/23,06:20,0.770,1.151,0.812,1.445,1.028,0.456,0.800,0.760,���k��,5.8,��
2018/09/23,06:30,0.772,1.150,0.811,1.443,1.027,0.457,0.800,0.759,���k��,6.3,��
2018/09/23,06:40,0.771,1.151,0.813,1.446,1.028,0.457,0.800,0.759,���k��,6.0,��
2018/09/23,06:50,0.771,1.151,0.813,1.449,1.030,0.457,0.801,0.758,���k��,6.3,��
2018/09/23,07:00,0.772,1.151,0.814,1.447,1.027,0.458,0.802,0.760,���k��,4.2,��
2018/09/23,07:10,0.772,1.152,0.814,1.446,1.029,0.457,0.802,0.759,���k��,6.2,��
2018/09/23,07:20,0.772,1.151,0.814,1.445,1.027,0.458,0.802,0.760,���k��,5.6,��
2018/09/23,07:30,0.773,1.153,0.814,1.448,1.029,0.457,0.800,0.760,�k�k��,3.1,��
2018/09/23,07:40,0.772,1.152,0.813,1.447,1.032,0.456,0.802,0.758,�k��,3.3,��
2018/09/23,07:50,0.773,1.150,0.815,1.449,1.031,0.458,0.803,0.760,�k�k��,4.0,��
2018/09/23,08:00,0.772,1.151,0.817,1.448,1.035,0.456,0.801,0.762,�k��,4.1,��
2018/09/23,08:10,0.774,1.151,0.817,1.448,1.031,0.457,0.801,0.761,�k��,3.3,��
2018/09/23,08:20,0.776,1.151,0.816,1.449,1.032,0.457,0.799,0.760,�k�k��,2.2,��
2018/09/23,08:30,0.773,1.152,0.818,1.448,1.031,0.456,0.800,0.760,�k�k��,2.9,��
2018/09/23,08:40,0.772,1.153,0.816,1.451,1.032,0.455,0.799,0.759,�k�k��,1.4,��
2018/09/23,08:50,0.772,1.152,0.818,1.452,1.031,0.457,0.800,0.758,�k��,2.3,��
2018/09/23,09:00,0.774,1.155,0.813,1.450,1.032,0.457,0.802,0.759,���k��,2.5,��
2018/09/23,09:10,0.774,1.159,0.814,1.449,1.033,0.457,0.801,0.758,���k��,3.1,��
2018/09/23,09:20,0.774,1.156,0.814,1.449,1.034,0.457,0.800,0.760,�k��,3.4,��
2018/09/23,09:30,0.774,1.157,0.815,1.450,1.035,0.458,0.802,0.759,�k��,3.2,��
2018/09/23,09:40,0.773,1.155,0.813,1.452,1.032,0.457,0.800,0.759,���k��,2.9,��
2018/09/23,09:50,0.775,1.156,0.813,1.450,1.034,0.457,0.799,0.760,�k��,2.5,��
2018/09/23,10:00,0.775,1.157,0.815,1.450,1.036,0.459,0.802,0.758,���k��,3.0,��
2018/09/23,10:10,0.774,1.158,0.817,1.451,1.036,0.458,0.801,0.760,���k��,2.6,��
2018/09/23,10:20,0.776,1.159,0.816,1.449,1.038,0.458,0.802,0.758,��,1.7,��
2018/09/23,10:30,0.773,1.160,0.815,1.450,1.038,0.459,0.802,0.760,�쓌,1.9,��
2018/09/23,10:40,0.776,1.162,0.817,1.449,1.041,0.460,0.801,0.759,�쓌,3.3,��
2018/09/23,10:50,0.777,1.161,0.817,1.451,1.039,0.458,0.803,0.758,��쓌,4.1,��
2018/09/23,11:00,0.777,1.162,0.817,1.450,1.041,0.458,0.802,0.760,�쓌,3.6,��
2018/09/23,11:10,0.777,1.164,0.816,1.452,1.040,0.459,0.803,0.761,��쓌,3.7,��
2018/09/23,11:20,0.777,1.165,0.817,1.451,1.041,0.458,0.802,0.760,��쓌,3.8,��
2018/09/23,11:30,0.778,1.164,0.817,1.450,1.040,0.459,0.802,0.760,��쓌,3.2,��
2018/09/23,11:40,0.776,1.166,0.819,1.452,1.040,0.459,0.804,0.760,��쓌,3.2,��
2018/09/23,11:50,0.781,1.165,0.818,1.451,1.043,0.458,0.802,0.759,���쓌,3.2,��
2018/09/23,12:00,0.778,1.165,0.819,1.451,1.044,0.457,0.803,0.761,���쓌,2.6,��
2018/09/23,12:10,0.777,1.166,0.817,1.454,1.043,0.459,0.803,0.760,�쓌,3.2,��
2018/09/23,12:20,0.778,1.168,0.821,1.451,1.045,0.458,0.802,0.761,�쓌,3.3,��
2018/09/23,12:30,0.779,1.167,0.820,1.452,1.043,0.459,0.802,0.760,�쓌,3.5,��
2018/09/23,12:40,0.778,1.169,0.820,1.454,1.045,0.459,0.803,0.760,��쓌,3.5,��
2018/09/23,12:50,0.779,1.166,0.819,1.452,1.044,0.459,0.802,0.759,�쓌,3.8,��
2018/09/23,13:00,0.779,1.168,0.819,1.455,1.046,0.459,0.804,0.760,��쓌,4.2,��
2018/09/23,13:10,0.778,1.169,0.820,1.452,1.046,0.457,0.804,0.761,�쓌,4.0,��
2018/09/23,13:20,0.778,1.167,0.821,1.450,1.046,0.460,0.805,0.761,��쓌,3.2,��
2018/09/23,13:30,0.780,1.170,0.820,1.455,1.046,0.461,0.804,0.761,��쓌,4.0,��
2018/09/23,13:40,0.780,1.172,0.822,1.453,1.046,0.459,0.804,0.762,��쓌,3.3,��
2018/09/23,13:50,0.780,1.168,0.822,1.455,1.045,0.461,0.804,0.759,��쓌,3.7,��
2018/09/23,14:00,0.779,1.171,0.819,1.457,1.048,0.460,0.804,0.762,�쓌,3.7,��
2018/09/23,14:10,0.780,1.173,0.821,1.453,1.048,0.460,0.805,0.761,��쓌,3.8,��
2018/09/23,14:20,0.779,1.168,0.821,1.454,1.048,0.460,0.804,0.760,��쓌,3.6,��
2018/09/23,14:30,0.780,1.172,0.821,1.455,1.046,0.462,0.804,0.762,�쓌,3.4,��
2018/09/23,14:40,0.779,1.173,0.822,1.453,1.049,0.462,0.803,0.763,�쓌,3.5,��
2018/09/23,14:50,0.779,1.171,0.822,1.454,1.046,0.460,0.804,0.761,��쓌,3.7,��
2018/09/23,15:00,0.779,1.171,0.822,1.452,1.047,0.461,0.805,0.761,��쓌,4.1,��
2018/09/23,15:10,0.779,1.171,0.822,1.456,1.046,0.461,0.802,0.762,��쓌,3.3,��
2018/09/23,15:20,0.780,1.173,0.822,1.455,1.046,0.459,0.805,0.760,��쓌,4.8,��
2018/09/23,15:30,0.780,1.172,0.822,1.455,1.048,0.462,0.802,0.759,�쓌,4.7,��
2018/09/23,15:40,0.781,1.173,0.824,1.455,1.049,0.459,0.803,0.760,�쓌,4.6,��
2018/09/23,15:50,0.782,1.171,0.824,1.454,1.050,0.460,0.805,0.761,��쓌,4.5,��
2018/09/23,16:00,0.780,1.171,0.821,1.455,1.048,0.460,0.805,0.759,��쓌,4.9,��
2018/09/23,16:10,0.781,1.173,0.822,1.456,1.050,0.460,0.803,0.759,��,4.2,��
2018/09/23,16:20,0.781,1.173,0.823,1.454,1.049,0.460,0.803,0.760,��쓌,4.4,��
2018/09/23,16:30,0.780,1.174,0.822,1.458,1.047,0.460,0.804,0.761,��쓌,5.4,��
2018/09/23,16:40,0.780,1.173,0.824,1.454,1.048,0.461,0.803,0.759,��쓌,4.4,��
2018/09/23,16:50,0.779,1.173,0.823,1.456,1.048,0.463,0.803,0.761,��쓌,4.0,��
2018/09/23,17:00,0.781,1.174,0.823,1.456,1.050,0.463,0.803,0.761,��,5.0,��
2018/09/23,17:10,0.779,1.173,0.825,1.458,1.050,0.460,0.803,0.761,��,5.7,��
2018/09/23,17:20,0.781,1.173,0.824,1.455,1.049,0.458,0.804,0.761,��,5.2,��
2018/09/23,17:30,0.780,1.176,0.823,1.453,1.051,0.460,0.804,0.760,��,5.0,��
2018/09/23,17:40,0.780,1.175,0.823,1.455,1.051,0.463,0.805,0.761,��,4.3,��
2018/09/23,17:50,0.780,1.174,0.824,1.456,1.051,0.462,0.805,0.762,��,4.9,��
2018/09/23,18:00,0.780,1.176,0.824,1.455,1.050,0.462,0.804,0.764,��,5.5,��
2018/09/23,18:10,0.782,1.174,0.825,1.456,1.052,0.462,0.804,0.762,��,5.6,��
2018/09/23,18:20,0.780,1.178,0.827,1.457,1.052,0.463,0.803,0.762,��,5.9,��
2018/09/23,18:30,0.781,1.176,0.824,1.458,1.049,0.462,0.804,0.764,��,5.8,��
2018/09/23,18:40,0.782,1.176,0.825,1.457,1.051,0.462,0.805,0.765,��쐼,6.0,��
2018/09/23,18:50,0.781,1.174,0.826,1.457,1.049,0.463,0.804,0.763,��쐼,5.5,��
2018/09/23,19:00,0.780,1.176,0.825,1.458,1.051,0.463,0.804,0.764,��쐼,5.2,��
2018/09/23,19:10,0.782,1.177,0.824,1.455,1.051,0.463,0.805,0.764,��쐼,5.3,��
2018/09/23,19:20,0.781,1.175,0.827,1.457,1.053,0.460,0.806,0.762,��,5.9,��
2018/09/23,19:30,0.781,1.178,0.824,1.458,1.051,0.463,0.805,0.763,��,4.7,��
2018/09/23,19:40,0.782,1.177,0.825,1.457,1.051,0.462,0.803,0.763,��쐼,4.1,��
2018/09/23,19:50,0.782,1.177,0.827,1.457,1.052,0.462,0.804,0.762,��,4.0,��
2018/09/23,20:00,0.782,1.178,0.827,1.456,1.051,0.462,0.806,0.763,��,2.9,��
2018/09/23,20:10,0.782,1.176,0.826,1.456,1.051,0.462,0.804,0.765,��쐼,2.6,��
2018/09/23,20:20,0.783,1.175,0.826,1.456,1.052,0.462,0.804,0.762,��쐼,3.4,��
2018/09/23,20:30,0.782,1.176,0.829,1.455,1.052,0.463,0.804,0.764,��쐼,3.9,��
2018/09/23,20:40,0.784,1.179,0.826,1.458,1.052,0.461,0.805,0.764,��,4.8,��
2018/09/23,20:50,0.781,1.178,0.825,1.456,1.052,0.462,0.805,0.763,��,5.0,��
2018/09/23,21:00,0.782,1.177,0.825,1.457,1.051,0.462,0.804,0.766,��,6.3,��
2018/09/23,21:10,0.783,1.179,0.825,1.458,1.052,0.461,0.805,0.765,��,6.4,��
2018/09/23,21:20,0.782,1.175,0.826,1.458,1.055,0.463,0.805,0.765,��,5.7,��
2018/09/23,21:30,0.781,1.177,0.826,1.458,1.050,0.462,0.805,0.764,��,5.6,��
2018/09/23,21:40,0.783,1.177,0.827,1.460,1.050,0.463,0.803,0.763,��쓌,6.0,��
2018/09/23,21:50,0.781,1.175,0.825,1.460,1.054,0.461,0.804,0.763,��쓌,6.8,��
2018/09/23,22:00,0.781,1.175,0.828,1.458,1.053,0.462,0.807,0.764,��,7.4,��
2018/09/23,22:10,0.784,1.177,0.825,1.457,1.053,0.462,0.806,0.764,��,7.9,��
2018/09/23,22:20,0.784,1.176,0.826,1.456,1.054,0.462,0.804,0.764,��,8.8,��
2018/09/23,22:30,0.783,1.177,0.825,1.459,1.052,0.462,0.805,0.763,��,8.9,��
2018/09/23,22:40,0.783,1.179,0.825,1.460,1.054,0.462,0.805,0.764,��,8.9,��
2018/09/23,22:50,0.783,1.176,0.826,1.457,1.053,0.462,0.804,0.763,��,8.4,��
2018/09/23,23:00,0.782,1.175,0.827,1.459,1.053,0.463,0.806,0.765,��,8.2,��
2018/09/23,23:10,0.779,1.176,0.826,1.459,1.052,0.460,0.805,0.763,��,8.4,��
2018/09/23,23:20,0.783,1.176,0.824,1.459,1.053,0.464,0.805,0.764,��,9.0,��
2018/09/23,23:30,0.781,1.176,0.827,1.457,1.054,0.462,0.805,0.763,��,9.9,��
2018/09/23,23:40,0.782,1.177,0.827,1.460,1.054,0.462,0.804,0.764,��,8.7,��
2018/09/23,23:50,0.781,1.175,0.825,1.457,1.052,0.462,0.807,0.765,��,9.9,��
